EW3244 Weather Reports


Display with metric or nautical units.
time (UTC)temp
F
wind
direction
speed
MPH
gust
MPH
rain 1hr
in
rain 24hr
in
rain mn
in
humidity
%
barometer
mb
20260831094548 62 79 3.0 10.0 0.00 0.13 0.02 75 1005.0
20260831093047 62 79 7.0 12.0 0.00 0.13 0.02 75 1004.8
20260831091557 62 57 4.0 9.0 0.00 0.13 0.02 76 1004.8
20260831090045 62 66 6.0 16.0 0.00 0.13 0.02 76 1004.9
20260831084543 62 52 6.0 15.0 0.00 0.17 0.02 77 1005.1
20260831083041 61 52 5.0 12.0 0.00 0.17 0.02 79 1005.2
20260831081543 60 80 4.0 11.0 0.00 0.17 0.02 80 1005.1
20260831080059 60 59 6.0 13.0 0.00 0.17 0.02 80 1005.2
20260831074539 59 80 7.0 13.0 0.00 0.17 0.02 82 1005.2
20260831073101 59 54 4.0 13.0 0.00 0.17 0.02 81 1005.0
20260831071547 59 59 6.0 12.0 0.00 0.17 0.02 82 1004.9
20260831070038 59 50 4.0 13.0 0.00 0.17 0.02 82 1004.9
20260831064534 59 32 6.0 13.0 0.00 0.17 0.02 82 1004.8
20260831063041 59 43 3.0 9.0 0.00 0.17 0.02 82 1004.8
20260831061531 58 40 3.0 7.0 0.00 0.17 0.02 81 1004.6
20260831060030 58 19 3.0 6.0 0.00 0.17 0.02 81 1004.6
20260831054529 58 27 5.0 10.0 0.00 0.17 0.02 81 1004.4
20260831053127 58 346 4.0 7.0 0.00 0.17 0.02 81 1004.3
20260831051530 58 38 5.0 10.0 0.00 0.17 0.02 81 1004.3
20260831050025 58 46 5.0 11.0 0.00 0.17 0.02 80 1004.3
20260831044524 57 62 4.0 9.0 0.00 0.17 0.02 78 1004.2
20260831043021 58 35 3.0 10.0 0.00 0.17 0.02 76 1004.1
20260831041520 58 32 1.0 5.0 0.00 0.17 0.02 78 1003.9
20260831040018 58 57 3.0 9.0 0.00 0.17 0.02 79 1003.9
20260831034526 58 42 5.0 10.0 0.00 0.17 0.02 80 1003.8
20260831033024 58 57 5.0 13.0 0.00 0.17 0.02 78 1003.6
20260831031516 58 55 7.0 14.0 0.00 0.17 0.02 77 1003.6
20260831030011 58 52 7.0 11.0 0.00 0.17 0.02 73 1003.6
20260831024509 58 57 4.0 9.0 0.00 0.17 0.02 71 1003.4
20260831023009 58 45 4.0 8.0 0.00 0.17 0.02 70 1003.5
20260831021512 58 45 4.0 8.0 0.01 0.17 0.02 70 1003.3
20260831020005 58 66 5.0 13.0 0.01 0.17 0.02 71 1003.3
20260831014502 59 57 3.0 9.0 0.01 0.17 0.02 65 1003.3
20260831013106 59 58 5.0 11.0 0.01 0.17 0.02 54 1003.2
20260831011554 59 50 4.0 10.0 0.00 0.16 0.02 46 1003.1
20260831010116 59 55 4.0 8.0 0.00 0.16 0.02 42 1002.9
20260831004558 59 38 5.0 8.0 0.00 0.16 0.02 40 1002.9
20260831003102 59 64 5.0 8.0 0.00 0.16 0.02 40 1002.8
20260831001549 59 73 5.0 10.0 0.00 0.16 0.02 42 1002.8
20260831000048 59 65 5.0 12.0 0.00 0.16 0.02 44 1002.7
20260830234546 59 57 7.0 13.0 0.00 0.16 0.02 46 1002.6
20260830233043 59 80 6.0 14.0 0.01 0.16 0.02 47 1002.3
20260830231540 60 55 9.0 18.0 0.02 0.16 0.02 46 1002.2
20260830230035 62 73 4.0 9.0 0.02 0.16 0.02 29 1001.7
20260830224534 62 77 5.0 10.0 0.02 0.16 0.02 28 1001.5
20260830223034 62 85 4.0 10.0 0.01 0.15 0.01 26 1001.5
20260830221530 61 37 4.0 9.0 0.00 0.14 0.00 26 1001.3
20260830220034 61 11 0.0 1.0 0.00 0.14 0.00 29 1001.2
20260830214527 61 12 0.0 2.0 0.00 0.14 0.14 30 1001.1
20260830213025 61 308 0.0 0.0 0.01 0.14 0.14 33 1001.0
20260830211524 61 308 0.0 0.0 0.01 0.14 0.14 33 1000.9
20260830210022 61 308 0.0 1.0 0.01 0.14 0.14 35 1000.8
20260830204531 61 308 0.0 0.0 0.01 0.14 0.14 37 1000.7
20260830203020 61 309 0.0 1.0 0.00 0.13 0.13 37 1000.6
20260830201519 61 308 0.0 1.0 0.00 0.13 0.13 39 1000.7
20260830200019 61 309 0.0 1.0 0.00 0.13 0.13 40 1000.6
20260830194518 61 308 0.0 0.0 0.00 0.16 0.13 42 1000.4
20260830193017 62 309 0.0 0.0 0.00 0.16 0.13 45 1000.4
20260830191515 62 308 0.0 0.0 0.00 0.16 0.13 45 1000.4
20260830190014 62 308 0.0 0.0 0.00 0.16 0.13 47 1000.5
20260830184513 62 308 0.0 0.0 0.00 0.17 0.13 48 1000.5
20260830183011 62 309 0.0 0.0 0.00 0.17 0.13 51 1000.5
20260830181511 62 309 0.0 0.0 0.00 0.17 0.13 52 1000.5
20260830180011 63 308 0.0 0.0 0.00 0.17 0.13 53 1000.5
20260830174509 63 309 0.0 0.0 0.00 0.17 0.13 54 1000.6
20260830173009 63 309 0.0 1.0 0.00 0.17 0.13 54 1000.5
20260830171509 64 327 0.0 2.0 0.00 0.17 0.13 54 1000.6
20260830170008 64 324 0.0 4.0 0.00 0.17 0.13 54 1000.5
20260830164514 64 301 1.0 4.0 0.00 0.17 0.13 53 1000.6
20260830163007 64 283 0.0 4.0 0.02 0.17 0.13 53 1000.5
20260830161506 64 283 0.0 2.0 0.03 0.17 0.13 54 1000.6
20260830160005 64 296 0.0 0.0 0.03 0.17 0.13 53 1000.7
20260830154504 64 298 0.0 3.0 0.03 0.17 0.13 55 1000.9
20260830153105 64 297 0.0 2.0 0.02 0.14 0.11 57 1001.0
20260830151600 64 289 0.0 3.0 0.01 0.13 0.10 58 1001.2
20260830150058 64 285 1.0 3.0 0.01 0.13 0.10 58 1001.3
20260830144557 63 279 0.0 3.0 0.02 0.18 0.10 59 1001.4
20260830143053 63 298 0.0 3.0 0.01 0.17 0.09 61 1001.5
20260830141552 63 336 0.0 3.0 0.01 0.17 0.09 63 1001.7
20260830140110 63 322 0.0 3.0 0.02 0.17 0.09 65 1001.6
20260830134550 63 272 0.0 2.0 0.01 0.26 0.09 66 1001.6
20260830133049 63 288 0.0 1.0 0.01 0.26 0.09 69 1001.7
20260830131549 63 254 0.0 3.0 0.01 0.26 0.09 73 1001.9
20260830130054 63 295 0.0 3.0 0.00 0.25 0.08 76 1001.9
20260830124547 64 284 0.0 6.0 0.00 0.25 0.08 76 1002.0
20260830123047 64 282 1.0 3.0 0.00 0.25 0.08 77 1002.0
20260830121541 64 283 0.0 4.0 0.00 0.25 0.08 73 1002.2
20260830120040 63 289 0.0 5.0 0.00 0.25 0.08 76 1002.4
20260830114539 63 313 0.0 4.0 0.00 0.25 0.08 75 1002.5
20260830113040 63 292 0.0 3.0 0.00 0.25 0.08 75 1002.6
20260830111534 63 318 2.0 4.0 0.00 0.25 0.08 76 1002.8
20260830110042 63 9 0.0 4.0 0.00 0.25 0.08 67 1002.9
20260830104536 62 12 1.0 5.0 0.01 0.25 0.08 59 1002.9
20260830103030 61 305 0.0 3.0 0.01 0.25 0.08 63 1003.1
20260830101529 61 344 2.0 5.0 0.02 0.25 0.08 65 1003.2
20260830100029 61 324 1.0 4.0 0.04 0.25 0.08 66 1003.2